Regional Weather Roundup
Issued by NWS

Home | Current Version | Previous Version | Text Only | Print | Product List | Glossary Off
Versions: 1 2 3 4 5 6 7 8 9 10 11 12 13 14 15 16 17 18 19 20 21 22 23 24 25 26 27 28 29 30 31 32 33 34 35 36 37 38 39 40 41 42 43 44 45 46 47 48 49 50

055
ASUS43 KFSD 250702
RWRSD

WEATHER ROUNDUP FOR SOUTH DAKOTA
NATIONAL WEATHER SERVICE SIOUX FALLS SD
200 AM CDT MON SEP 25 2017

NOTE: "FAIR" INDICATES FEW OR NO CLOUDS BELOW 12,000 FEET WITH NO
SIGNIFICANT WEATHER AND/OR OBSTRUCTIONS TO VISIBILITY.


SDZ001>005-009-010-012>017-250800-
NORTHWEST AND NORTH CENTRAL SOUTH DAKOTA

CITY           SKY/WX    TMP DP  RH WIND       PRES   REMARKS
BUFFALO          N/A     41  39  93 N6        30.06S
FAITH            N/A     46  44  93 N7        30.12S
MOBRIDGE       CLOUDY    50  46  86 N10       30.08S
$$

SDZ012>016-024>037-041>051-057-063-072>074-250800-
SOUTHWEST AND SOUTH CENTRAL SOUTH DAKOTA

CITY           SKY/WX    TMP DP  RH WIND       PRES   REMARKS
RAPID CTY ARPT NOT AVBL
PIERRE         CLOUDY    49  46  90 N9        30.10R
CUSTER         LGT RAIN  38  36  92 NE5       30.10R
ELLSWORTH AFB  CLOUDY    45  45 100 N8        30.11
PHILIP         CLOUDY    48  47  96 N10       30.10F
PINE RIDGE     LGT RAIN  46  45  96 N6        30.09S FOG
SPEARFISH      CLOUDY    41  41 100 N5        30.13F FOG
WINNER         CLOUDY    52  48  86 N9        30.09R
$$

SDZ004>011-016>023-039-040-250800-
NORTHEAST SOUTH DAKOTA

CITY           SKY/WX    TMP DP  RH WIND       PRES   REMARKS
ABERDEEN       CLOUDY    50  47  89 N8        30.08R
WATERTOWN      CLOUDY    50  49  96 N9        30.04R
BROOKINGS      RAIN      51  50  96 N8        30.04R
SISSETON         N/A     51  49  92 N9        30.04R
$$

SDZ017-020-022-023-036>040-048>070-250800-
SOUTHEAST SOUTH DAKOTA

CITY           SKY/WX    TMP DP  RH WIND       PRES   REMARKS
SIOUX FALLS    RAIN      55  54  96 N14       30.00S
HURON          CLOUDY    51  48  89 N13       30.05F
CHAMBERLAIN    CLOUDY    53  50  92 N9        30.07R
MITCHELL       CLOUDY    52  50  93 N12       30.03S
YANKTON        RAIN      53  52  96 N8        30.01F
$$

ABBREVIATIONS USED IN REMARKS
   TC - TEMPERATURE IN CELSIUS
  WCI - WIND CHILL INDEX
   HX - HEAT INDEX
  VSB - VISIBILITY





USA.gov is the U.S. government's official web portal to all federal, state and local government web resources and services.